Location: Bremen
(53.0796°N, 8.8241°E)
Time: 04:30:54
(UTC+01:00)

ISS - Pass Details

Date: 08 January 2018
Orbit: 401 x 406 km, 51.6° (Epoch: 17 January)

Event Time Altitude Azimuth Distance (km) Brightness Sun altitude
Exits shadow 05:07:54 14° 92° (E) 1,253 -0.5 -30.0°
Drops below altitude 10° 05:08:26 10° 91° (E) 1,467 -0.1 -30.0°
Sets 05:10:32 0° 88° (E) 2,329 1.2 -29.6°
